TimePST,TemperatureF,Dew PointF,Humidity,Sea Level PressureIn,VisibilityMPH,Wind Direction,Wind SpeedMPH,Gust SpeedMPH,PrecipitationIn,Events,Conditions,WindDirDegrees,DateUTC
12:53 AM,41.0,34.0,76,29.90,10.0,NNW,6.9,-,N/A,,Overcast,340,2013-01-23 08:53:00
1:24 AM,39.2,33.8,81,29.91,10.0,ENE,9.2,-,N/A,,Overcast,60,2013-01-23 09:24:00
1:53 AM,39.0,34.0,82,29.93,9.0,ENE,11.5,-,0.00,Rain,Light Rain,70,2013-01-23 09:53:00
2:53 AM,41.0,37.9,89,29.92,6.0,NE,6.9,-,0.03,Rain,Light Rain,40,2013-01-23 10:53:00
3:53 AM,37.0,36.0,96,29.90,8.0,ENE,13.8,-,0.04,Rain,Light Rain,60,2013-01-23 11:53:00
4:53 AM,37.0,36.0,96,29.88,7.0,ENE,10.4,-,0.01,Rain,Light Rain,70,2013-01-23 12:53:00
5:53 AM,39.0,37.0,93,29.88,9.0,ENE,9.2,-,0.02,Rain,Light Rain,60,2013-01-23 13:53:00
6:53 AM,39.0,37.9,96,29.88,8.0,ENE,8.1,-,0.02,Rain,Light Rain,60,2013-01-23 14:53:00
7:53 AM,39.9,37.9,93,29.85,10.0,ENE,11.5,-,0.00,,Overcast,60,2013-01-23 15:53:00
8:16 AM,39.2,37.4,93,29.84,10.0,ENE,8.1,-,0.01,Rain,Light Rain,60,2013-01-23 16:16:00
8:45 AM,39.2,37.4,93,29.84,4.0,ENE,9.2,-,0.03,Rain,Light Rain,70,2013-01-23 16:45:00
8:53 AM,39.0,37.9,96,29.85,4.0,ENE,10.4,-,0.03,Rain,Light Rain,60,2013-01-23 16:53:00
9:53 AM,39.0,37.0,93,29.86,7.0,ENE,9.2,-,0.05,Rain,Light Rain,60,2013-01-23 17:53:00
10:53 AM,41.0,39.0,93,29.86,6.0,ENE,8.1,-,0.03,Rain,Light Rain,60,2013-01-23 18:53:00
11:53 AM,42.1,41.0,96,29.86,4.0,NE,8.1,-,0.04,Rain,Light Rain,50,2013-01-23 19:53:00
12:18 PM,42.8,41.0,93,29.84,2.5,ENE,4.6,-,0.04,Rain,Light Rain,60,2013-01-23 20:18:00
12:46 PM,42.8,42.8,100,29.84,2.5,ENE,4.6,-,0.09,Rain,Light Rain,60,2013-01-23 20:46:00
12:53 PM,43.0,42.1,97,29.85,3.0,Calm,Calm,-,0.10,Rain,Light Rain,0,2013-01-23 20:53:00
1:47 PM,44.6,44.6,100,29.85,4.0,WSW,8.1,-,0.08,Rain,Light Rain,250,2013-01-23 21:47:00
1:48 PM,44.6,44.6,100,29.85,4.0,WSW,9.2,-,0.08,Rain,Light Rain,250,2013-01-23 21:48:00
1:53 PM,46.0,44.1,93,29.87,5.0,WSW,10.4,-,0.09,Rain,Light Rain,250,2013-01-23 21:53:00
2:03 PM,44.6,42.8,93,29.86,6.0,West,19.6,26.5,0.01,Rain,Light Rain,260,2013-01-23 22:03:00
2:10 PM,46.4,42.8,87,29.87,6.0,West,16.1,26.5,0.01,Rain,Light Rain,270,2013-01-23 22:10:00
2:53 PM,46.0,43.0,89,29.90,6.0,West,11.5,-,0.05,Rain,Light Rain,270,2013-01-23 22:53:00
3:53 PM,45.0,42.1,90,29.94,10.0,WSW,4.6,-,0.06,Rain,Light Rain,250,2013-01-23 23:53:00
4:53 PM,44.1,43.0,96,29.96,10.0,SSE,5.8,-,0.00,,Overcast,160,2013-01-24 00:53:00
5:08 PM,44.6,42.8,93,29.95,10.0,SSE,5.8,-,N/A,,Overcast,160,2013-01-24 01:08:00
5:19 PM,44.6,42.8,93,29.96,10.0,South,6.9,-,N/A,,Overcast,170,2013-01-24 01:19:00
5:46 PM,44.6,42.8,93,29.98,3.0,SW,5.8,-,0.02,Rain,Light Rain,220,2013-01-24 01:46:00
5:51 PM,44.6,42.8,93,29.98,2.5,WSW,6.9,-,0.04,Rain,Light Rain,250,2013-01-24 01:51:00
5:53 PM,44.1,44.1,100,29.99,2.0,SW,6.9,-,0.06,Rain,Rain,230,2013-01-24 01:53:00
5:57 PM,44.6,44.6,100,29.97,1.8,SSW,8.1,-,0.01,Rain,Rain,210,2013-01-24 01:57:00
6:03 PM,44.6,44.6,100,29.98,3.0,SW,6.9,-,0.01,Rain,Light Rain,220,2013-01-24 02:03:00
6:11 PM,44.6,42.8,93,29.98,3.0,SW,8.1,-,0.02,Rain,Light Rain,220,2013-01-24 02:11:00
6:22 PM,44.6,42.8,93,29.99,9.0,SW,8.1,-,0.02,,Overcast,220,2013-01-24 02:22:00
6:53 PM,44.6,42.8,93,30.01,10.0,West,10.4,-,N/A,,Overcast,260,2013-01-24 02:53:00
7:37 PM,44.6,42.8,93,30.04,10.0,West,11.5,-,0.00,,Overcast,260,2013-01-24 03:37:00
7:53 PM,45.0,42.1,90,30.06,10.0,West,6.9,-,0.00,,Overcast,260,2013-01-24 03:53:00
8:53 PM,41.0,39.9,96,30.09,10.0,WSW,3.5,-,N/A,,Partly Cloudy,240,2013-01-24 04:53:00
9:53 PM,39.9,39.0,97,30.13,6.0,Calm,Calm,-,N/A,,Scattered Clouds,0,2013-01-24 05:53:00
10:53 PM,37.9,36.0,93,30.15,5.0,Calm,Calm,-,N/A,,Clear,0,2013-01-24 06:53:00
11:46 PM,37.4,37.4,100,30.16,7.0,Calm,Calm,-,N/A,,Mostly Cloudy,0,2013-01-24 07:46:00
11:53 PM,37.9,37.0,97,30.17,7.0,Calm,Calm,-,N/A,,Mostly Cloudy,0,2013-01-24 07:53:00